Location: Elende
(51.4317°N, 10.6316°E)
Time: 19:28:14
(UTC+00:00)

Lacrosse 5 rocket - Pass Details

Date: 18 September 2020
Orbit: 461 x 635 km, 57.0° (Epoch: 21 October)

Event Time Altitude Azimuth Distance (km) Brightness Sun altitude
Rises 19:47:04 0° 279° (W) 2,789 6.0 -21.8°
Reaches altitude 10° 19:49:23 10° 287° (WNW) 1,919 5.1 -22.1°
Maximum altitude 19:53:32 40° 357° (N) 901 2.6 -22.7°
Enters shadow 19:55:13 29° 44° (NE) 1,144 2.8 -22.9°
